Location: Gleizolles
(44.4833°N, 6.7667°E)
Time: 00:58:38
(UTC+00:00)

S-56A Canister/Altair - Pass Details

Date: 02 July 2024
Orbit: 638 x 2488 km, 38.9° (Epoch: 24 July)

Event Time Altitude Azimuth Distance (km) Brightness Sun altitude
Rises 19:52:12 0° 263° (W) 3,627 11.7 -5.3°
Reaches altitude 10° 19:54:27 10° 260° (W) 2,863 11.1 -5.6°
Maximum altitude 20:01:24 60° 182° (S) 1,551 8.9 -6.5°
Drops below altitude 10° 20:11:59 10° 106° (ESE) 4,272 10.8 -7.9°
Enters shadow 20:15:14 - 104° (ESE) 5,278 11.3 -8.3°
Sets 20:16:05 0° 104° (ESE) 5,534 - -8.4°
